SCP
0 0 0 0 0 0 0 0 0 0 0 0 0 0 0 0 0 0 0 0 0 0
0 0 0 0 0 0 0 0 0 0 0 0 0 0 0 0 0 0 0 0 0 0
0 0 0 0 0 0 0 0 0 0 0 0 0 0 0 0 0 0 0 0 0 0
0 0 0 0 0 0 0 0 0 0 0 0 0 0 0 0 0 0 0 0 0 0
0 0 0 0 0 0 0 0 0 0 0 0 0 0 0 0 0 0 0 0 0 0
0 0 0 0 0 0 0 0 0 0 0 0 0 0 0 0 0 0 0 0 0 -0
0 0 0 0 0 0 0 0 0 0 0 0 0 0 0 0 0 0 0 0 0 0
0 0 0 0 0 0 0 0 0 0 0 0 0 0 0 0 0 0 0 0 0 0
0 0 0 0 0 0 0 0 0 0 0 0 0 0 0 0 0 0 0 0 0 0
0 0 0 0 0 0 0 0 0 0 0 0 0 0 0 0 0 0 0 0 0 0
0 0 0 0 0 0 0 0 0 0 0 0 0 0 0 0 0 0 0 0 0 0
0 0 0 0 0 0 0 0 0 0 0 0 0 0 0 0 0 0 0 0 0 0
0 0 0 0 0 0 0 0 0 0 0 0 0 0 0 0 0 0 0 0 0 0
0 0 0 0 0 0 0 0 0 0 0 0 0 0 0 0 0 0 0 0 0 0
Wind_Speed_500mb
16 14 12 10 7 3 2 7 11 13 17 20 22 25 27 30 32 34 36 39 41 44
21 18 14 9 4 1 5 8 11 14 17 21 25 27 30 32 34 38 42 47 51 55
20 14 11 9 5 2 5 9 13 17 22 24 27 30 34 38 41 45 49 53 57 61
18 16 12 7 5 7 11 16 20 24 27 30 33 36 39 42 46 50 54 58 62 66
24 18 14 11 9 12 16 21 25 29 31 34 37 40 43 47 51 55 59 63 66 69
28 24 20 16 15 17 21 25 29 33 37 39 42 44 47 50 53 55 59 63 68 70
35 30 26 23 21 20 25 29 33 37 40 42 44 47 49 53 57 60 63 66 69 73
41 37 35 30 29 29 30 32 35 40 43 45 47 49 52 56 59 61 65 68 71 72
49 45 43 39 37 37 36 35 37 43 47 49 50 52 54 56 59 62 66 69 72 72
54 54 52 48 47 45 42 39 41 46 50 53 53 54 55 57 59 63 65 67 70 72
61 60 60 58 56 54 49 43 43 48 53 56 55 57 57 58 60 63 65 67 67 66
60 63 65 63 61 59 54 48 47 52 53 58 57 57 58 59 61 63 66 66 66 61
51 55 60 62 62 60 57 53 52 54 56 58 59 57 57 58 60 63 63 61 60 54
49 53 59 62 63 61 57 57 57 59 60 62 62 59 58 57 56 56 56 53 55 52
Wind_Direction_500mb
155 160 164 173 171 160 29 5 4 1 357 354 354 353 350 348 345 342 340 336 332 328
175 174 176 181 191 300 343 346 348 347 339 338 337 335 334 333 333 332 332 331 329 327
187 185 194 196 199 282 325 333 332 327 324 324 325 326 326 328 328 329 330 329 327 326
201 203 210 221 266 311 321 326 326 323 321 321 320 321 323 325 327 328 328 328 327 325
213 215 220 236 269 299 313 318 320 319 318 317 317 318 321 324 326 326 326 326 324 322
218 221 229 245 271 294 308 315 315 316 316 317 317 318 320 321 321 322 324 324 323 320
225 231 237 249 266 286 303 310 312 314 314 314 314 314 318 320 322 323 323 323 320 318
230 237 242 253 264 281 291 299 308 312 312 312 313 314 317 318 319 319 320 320 319 318
236 244 250 255 264 273 282 289 301 309 311 310 311 312 314 315 316 318 320 319 319 317
243 248 253 258 263 266 272 283 297 307 309 307 309 309 310 314 316 317 317 317 319 318
246 252 257 260 263 263 267 278 290 301 307 306 305 306 309 313 314 315 316 317 316 317
253 258 259 262 262 262 266 275 284 297 302 303 301 303 307 310 312 313 314 315 315 318
258 258 260 261 261 262 265 273 281 293 300 301 300 303 305 308 311 310 309 312 316 316
256 260 261 260 260 261 266 273 281 291 298 300 298 299 301 305 306 307 309 310 311 311
Wind_Speed_850mb
16 14 12 10 7 3 2 7 11 13 17 20 22 25 27 30 32 34 36 39 41 44
21 18 14 9 4 1 5 8 11 14 17 21 25 27 30 32 34 38 42 47 51 55
20 14 11 9 5 2 5 9 13 17 22 24 27 30 34 38 41 45 49 53 57 61
18 16 12 7 5 7 11 16 20 24 27 30 33 36 39 42 46 50 54 58 62 66
24 18 14 11 9 12 16 21 25 29 31 34 37 40 43 47 51 55 59 63 66 69
28 24 20 16 15 17 21 25 29 33 37 39 42 44 47 50 53 55 59 63 68 70
35 30 26 23 21 20 25 29 33 37 40 42 44 47 49 53 57 60 63 66 69 73
41 37 35 30 29 29 30 32 35 40 43 45 47 49 52 56 59 61 65 68 71 72
49 45 43 39 37 37 36 35 37 43 47 49 50 52 54 56 59 62 66 69 72 72
54 54 52 48 47 45 42 39 41 46 50 53 53 54 55 57 59 63 65 67 70 72
61 60 60 58 56 54 49 43 43 48 53 56 55 57 57 58 60 63 65 67 67 66
60 63 65 63 61 59 54 48 47 52 53 58 57 57 58 59 61 63 66 66 66 61
51 55 60 62 62 60 57 53 52 54 56 58 59 57 57 58 60 63 63 61 60 54
49 53 59 62 63 61 57 57 57 59 60 62 62 59 58 57 56 56 56 53 55 52
Wind_Direction_850mb
155 160 164 173 171 160 29 5 4 1 357 354 354 353 350 348 345 342 340 336 332 328
175 174 176 181 191 300 343 346 348 347 339 338 337 335 334 333 333 332 332 331 329 327
187 185 194 196 199 282 325 333 332 327 324 324 325 326 326 328 328 329 330 329 327 326
201 203 210 221 266 311 321 326 326 323 321 321 320 321 323 325 327 328 328 328 327 325
213 215 220 236 269 299 313 318 320 319 318 317 317 318 321 324 326 326 326 326 324 322
218 221 229 245 271 294 308 315 315 316 316 317 317 318 320 321 321 322 324 324 323 320
225 231 237 249 266 286 303 310 312 314 314 314 314 314 318 320 322 323 323 323 320 318
230 237 242 253 264 281 291 299 308 312 312 312 313 314 317 318 319 319 320 320 319 318
236 244 250 255 264 273 282 289 301 309 311 310 311 312 314 315 316 318 320 319 319 317
243 248 253 258 263 266 272 283 297 307 309 307 309 309 310 314 316 317 317 317 319 318
246 252 257 260 263 263 267 278 290 301 307 306 305 306 309 313 314 315 316 317 316 317
253 258 259 262 262 262 266 275 284 297 302 303 301 303 307 310 312 313 314 315 315 318
258 258 260 261 261 262 265 273 281 293 300 301 300 303 305 308 311 310 309 312 316 316
256 260 261 260 260 261 266 273 281 291 298 300 298 299 301 305 306 307 309 310 311 311